Terminal Aerodrome Forecast
Issued by NWS Dallas/Fort Worth, TX

Home | Current Version | Previous Version | Text Only | Print | Product List | Glossary On
Versions: 1 2 3 4 5 6 7 8 9 10 11 12 13 14 15 16 17 18 19 20 21 22 23 24 25 26 27 28 29 30 31 32 33 34
000
FTUS44 KFWD 212100 AAA
TAFACT
TAF AMD
KACT 212103Z 2121/2218 17012KT P6SM OVC022
      TEMPO 2121/2201 OVC015
     FM220100 18015KT P6SM OVC012=

USA.gov is the U.S. government's official web portal to all federal, state and local government web resources and services.